Home > Weather > St. John's > Past weeks

Flag for Canada Past Weather in St. John's, Newfoundland and Labrador, Canada — Yesterday and Last 2 Weeks

Now
73 °F

Passing clouds.


Feels Like: 77 °F
Forecast: 55 / 73 °F
Wind: 25 mph from Southwest

Location: St. John's

Current Time: Jun 28, 2016 at 12:42:58 PM

Latest Report: Jun 28, 2016 at 11:30 AM


Visibility: 15 mi

Pressure: 30.20 "Hg

Humidity: 44%

Dew Point: 50 °F

Location of St. John'sLocation

Past Weather in St. John's — Graph

°F

St. John's Temperature Yesterday

Maximum temperature yesterday: 75 °F (at 1:30 PM)
Minimum temperature yesterday: 55 °F (at 12:30 AM)
Average temperature yesterday: 66 °F

High & Low Weather Summary for the Past Weeks

 TemperatureHumidityPressure
High75 °F (Jun 20, 12:30 PM)100% (Jun 13, 10:30 AM)30.34 "Hg (Jun 13, 10:30 AM)
Low37 °F (Jun 18, 10:30 PM)31% (Jun 26, 11:30 AM)29.49 "Hg (Jun 17, 1:30 AM)
Average57 °F80%29.93 "Hg
* Reported Jun 13 10:30 AM — Jun 28 10:30 AM, St. John's, Weather by CustomWeather, © 2016

Note: Actual official high and low records may vary slightly from our data, if they occured in-between our weather recording intervals... More about our weather records

Advertising

St. John's Weather History for the Previous 24 Hours

Scroll right to see more
 ConditionsComfort  
Time TempWeatherWind HumidityBarometerVisibility
10:30 AM
Tue, Jun 28
70 °FPassing clouds.24 mph53%30.20 "Hg15 mi
9:30 AM66 °FPassing clouds.24 mph56%30.21 "Hg15 mi
8:30 AM63 °FPassing clouds.26 mph56%30.20 "Hg15 mi
7:30 AM59 °FPassing clouds.23 mph63%30.20 "Hg15 mi
6:30 AM57 °FPassing clouds.20 mph67%30.20 "Hg15 mi
5:30 AM57 °FPassing clouds.23 mph63%30.18 "Hg15 mi
4:30 AM55 °FPassing clouds.22 mph72%30.17 "Hg15 mi
3:30 AM55 °FPassing clouds.22 mph77%30.16 "Hg15 mi
2:30 AM55 °FPassing clouds.20 mph77%30.15 "Hg15 mi
1:30 AM55 °FPassing clouds.24 mph82%30.13 "Hg15 mi
12:30 AM55 °FPassing clouds.25 mph82%30.13 "Hg15 mi
11:30 PM
Mon, Jun 27
59 °FMostly cloudy.22 mph88%30.13 "Hg15 mi
10:30 PM59 °FPassing clouds.26 mph88%30.13 "Hg15 mi
9:30 PM61 °FPartly sunny.23 mph83%30.13 "Hg15 mi
8:30 PM63 °FMild.16 mph83%30.14 "Hg15 mi
7:30 PM68 °FPartly sunny.26 mph69%30.15 "Hg15 mi
6:30 PM70 °FScattered clouds.30 mph69%30.14 "Hg15 mi
5:30 PM72 °FScattered clouds.31 mph69%30.15 "Hg15 mi
4:30 PM72 °FBroken clouds.20 mph78%30.16 "Hg15 mi
4:18 PM70 °FMore clouds than sun.18 mph83%30.17 "Hg15 mi
3:30 PM73 °FMostly cloudy.24 mph78%30.17 "Hg15 mi
2:30 PM75 °FPartly sunny.21 mph74%30.19 "Hg15 mi
1:30 PM75 °FPartly sunny.20 mph74%30.21 "Hg15 mi
12:30 PM72 °FBroken clouds.18 mph83%30.22 "Hg15 mi
Weather by CustomWeather, © 2016

See weather overviewHow to use our weather pages